Regional Weather Roundup
Issued by NWS

Home | Current Version | Previous Version | Graphics & Text | Print | Product List | Glossary On
Versions: 1 2 3 4 5 6 7 8 9 10 11 12 13 14 15 16 17 18 19 20 21 22 23 24 25 26 27 28 29 30 31 32 33 34 35 36 37 38 39 40 41 42 43 44 45 46 47 48 49 50
000
ASUS45 KBOU 262007
RWRCO

WEATHER ROUNDUP FOR COLORADO
NATIONAL WEATHER SERVICE DENVER/BOULDER CO
200 PM MDT TUE AUG 26 2014

NOTE: "FAIR" INDICATES FEW OR NO CLOUDS BELOW 12000 FEET WITH NO
SIGNIFICANT WEATHER AND/OR OBSTRUCTIONS TO VISIBILITY.

COZ001>005-013-030-031-262100-
...NORTHWEST COLORADO...

CITY           SKY/WX    TMP DP  RH WIND       PRES   REMARKS
CRAIG          CLOUDY    65  52  62 NE3       30.28S
HAYDEN         CLOUDY    64  48  55 NW6       30.30R
MEEKER         LGT RAIN  58  52  80 E10       30.31R
MOUNT WERNER   NOT AVBL
STEAMBOAT SPGS CLOUDY    67  44  43 E5        30.30F
WALDEN         PTSUNNY   68  39  34 SE9       30.36F
$$

COZ006>008-011-262100-
...WEST CENTRAL VALLEYS...

CITY           SKY/WX    TMP DP  RH WIND       PRES   REMARKS
GRAND JUNCTION CLOUDY    68  57  68 S10       30.18S
MONTROSE       PTSUNNY   77  49  37 NW3       30.22S
EAGLE          MOSUNNY   77  43  29 W7        30.24F
RIFLE          CLOUDY    62  56  80 E10       30.27R
DELTA          NOT AVBL
NUCLA          CLOUDY    70  46  43 NW21      30.28R
$$

COZ017>023-064>068-262100-
...SOUTHWEST COLORADO...

CITY           SKY/WX    TMP DP  RH WIND       PRES   REMARKS
DURANGO        PTSUNNY   72  45  37 E8        30.30F
CORTEZ         MOSUNNY   82  46  28 S15G21    30.22F
PAGOSA SPRINGS CLOUDY    63  52  67 E5        30.39F
TELLURIDE      NOT AVBL
WOLF CREEK PAS NOT AVBL
$$

COZ009-010-012-014-032>034-037-058>063-262100-
...CENTRAL COLORADO...

CITY           SKY/WX    TMP DP  RH WIND       PRES   REMARKS
ASPEN          MOSUNNY   72  39  30 SE7       30.31F
BUENA VISTA    PTSUNNY   68  42  37 SE8       30.35F
COPPER MTN     PTSUNNY   59  36  41 S7G20     30.63S
BERTHOUD PASS  CLOUDY    39  37  93 MISG      30.68S THUNDER
COTTONWOOD PAS PTSUNNY   64  41  42 SE10G17   30.48F
GUNNISON       MOSUNNY   68  43  40 W13G28    30.37S
KREMMLING      PTSUNNY   73  39  29 N7        30.31F
LEADVILLE      MOSUNNY   61  37  41 N6        30.47F
MONARCH PASS   PTSUNNY   52  36  54 W10       30.73F
SALIDA         PTSUNNY   70  50  48 N3        30.39F
SUNLIGHT       TSTM      45  45 100 W9G16     30.57R VSB<1/4
WILKERSON PASS NOT AVBL
$$

COZ069>075-262100-
...SAN LUIS VALLEY/SANGRE DE CRISTO MOUNTAINS...

CITY           SKY/WX    TMP DP  RH WIND       PRES   REMARKS
ALAMOSA        PTSUNNY   73  42  32 VRB5      30.31F
LA VETA PASS   NOT AVBL
SAGUACHE       PTSUNNY   70  43  37 W5        30.35F
$$

COZ035-036-038>040-262100-
...NORTHERN COLORADO FRONT RANGE...

CITY           SKY/WX    TMP DP  RH WIND       PRES   REMARKS
DENVER INTL AP PTSUNNY   78  57  48 SE7       30.18F
DMNS CITY PARK   N/A     77  54  44 SW5       30.18S
AURORA         PTSUNNY   77  54  45 SE5       30.20F
FRONT RANGE AP NOT AVBL
ERIE MUNI ARPT MOSUNNY   76  55  48 SE5       30.17F
BOULDER MUN AP MOSUNNY   70  55  60 NW5       30.18F
CENTENNIAL     PTSUNNY   76  53  44 SE7       30.20F
BROOMFIELD     PTSUNNY   75  55  50 N5        30.21F
FORT COLLINS   MOSUNNY   79  57  47 SE7       30.17F
LONGMONT       MOSUNNY   74  57  56 CALM      30.19F
$$

COZ041-046-047-076>085-087-088-262100-
...PIKES PEAK/PALMER DIVIDE AND SOUTHERN FOOTHILLS...

CITY           SKY/WX    TMP DP  RH WIND       PRES   REMARKS
COLO. SPRINGS  PTSUNNY   70  55  59 SW8       30.28F THUNDER
A. F. ACADEMY  MOSUNNY   66  55  67 SW5       30.29F
ELLICOTT       MOSUNNY   73  53  49 SW8       30.26S
FALCON         MOSUNNY   71  53  53 SW8       30.32S
FORT CARSON    MOSUNNY   73  55  54 CALM      30.25F
LIMON          PTSUNNY   74  59  59 SE13      30.21F
MONUMENT HILL  MOSUNNY   72  50  46 S9        30.29F
TRINIDAD       TSTM      65  52  62 W20G35    30.27R
$$

COZ042>045-048>051-090-091-262100-
...NORTHEAST COLORADO...

CITY           SKY/WX    TMP DP  RH WIND       PRES   REMARKS
GREELEY ARPT   MOSUNNY   79  57  47 SE7       30.16F
AKRON          PTSUNNY   76  60  57 S12G23    30.18F
BURLINGTON     PTSUNNY   77  59  53 S14G25    30.17F
WRAY             N/A     78  62  58 S10       30.17F
STERLING       PTSUNNY   81  63  54 S8        30.14S
HOLYOKE        PTSUNNY   79  64  61 SE14      30.17S
FORT MORGAN    PTSUNNY   78  58  48 SE8       30.17F
$$

COZ086-089-092>099-262100-
...SOUTHEAST COLORADO...

CITY           SKY/WX    TMP DP  RH WIND       PRES   REMARKS
PUEBLO         MOSUNNY   73  57  57 SW3       30.20R
LA JUNTA       MOSUNNY   75  59  57 E5        30.17F
LAMAR          SUNNY     87  56  34 MISG      30.11F
SPRINGFIELD      N/A     77  61  57 E10       30.15F
$$



USA.gov is the U.S. government's official web portal to all federal, state and local government web resources and services.